Location: Bouillancy
(49.1149°N, 2.9308°E)
Time: 08:32:24
(UTC+00:00)

Cosmos 1461 - Pass Details

Date: 30 September 2020
Orbit: 500 x 665 km, 65.0° (Epoch: 29 October)

Event Time Altitude Azimuth Distance (km) Brightness Sun altitude
Rises 19:28:34 0° 321° (NW) 3,011 7.6 -20.2°
Reaches altitude 10° 19:30:55 10° 324° (NW) 2,098 6.6 -20.6°
Maximum altitude 19:35:42 71° 49° (NE) 705 3.1 -21.3°
Enters shadow 19:36:32 57° 107° (ESE) 782 3.2 -21.4°
